STARLINK-1231, 45212

Orbit data source: Space-Track

STARLINK-1231, 45212 is a payload satellite owned by SpaceX/Seattle (US) in LEO that was launched on Mon, 17 Feb 2020 UTC via an FALCON 9 launch vehicle from the Air Force Eastern Test Range (AFETR). Payloads include a variety of satellites, spacecraft, and rockets equipped with specific instruments for various scientific and technological missions. These include communications satellites like Starlink; space stations such as the ISS; scientific satellites like the Hubble; Earth observation satellites from companies like Planet Labs, Umbra, and HawkEye 360; GPS; miniature CubeSats for education and research; and military/defense satellites.

Loading next visibility...
STARLINK-1231 details
Identifier
45212, 2020-012AL
Orbit
LEO
Last TLE update14 hours ago
Origin
Flag of USSpaceX/Seattle (US)
ManufacturerSpaceX/Seattle
MissionOperational Commercial Communications
Bus & MotorSTARLINK, Unknown motor
Mass260 kg wet, ~248 kg dry
Launch date (UTC)
2020-02-17 (5 years ago)
Launch vehicle
FALCON 9
Launch site
Air Force Eastern Test Range (AFETR)
Object type
Payload
Rocket body
Debris
Shape & HBRBox + 1 Pan, 8.86 m
Radar Cross Section13.562 m², Large (>1 m²)

Expand to show TLE details & history

TLE from 14 hours ago
0 STARLINK-1231
1 45212U 20012AL  24339.59283125  .00008990  00000-0  62121-3 0  9996
2 45212  53.0558 292.0690 0001849  67.9234 292.1951 15.06427088264836
Epoch: 2024-12-04T14:13Z
Definitive object data (Epoch: 2024-12-04T14:13:40.619Z)
Latitude-0.00006°
Longitude4.76394°
Altitude547.524 km
Speed7.59 km/s
True Right ascension19h 28m 16s
True Declination0° 00' 00"
Sunlit
Object was in daylight at TLE epoch
Visualization TLE readout
Latitude-38.495°
Longitude-141.3111°
Altitude560.85 km
Speed7.58 km/s
Apparent Right ascension11h 42m 54s
Apparent Declination-43° 31' 30"
Sunlit
Object is in daylight
Visualization observer readout
Local Sidereal Time01:56:31
Azimuth109.301° ESE
Elevation-64.979°
Doppler factor1
Orbital elements
Apogee altitude548.68 km
Perigee altitude546.119 km
Semi-major axis6,925.536 km
Eccentricity0.0001849
Inclination53.0558°
RAAN292.069°
Arg. of periapsis67.9234°
True anomaly292.17548°
Mean anomaly292.1951°
Eccentric anomaly292.18529°
Mean motion3.76585 °/min
BSTAR0.00062121
Orbital period95.6 mins
Loading maneuver chart data...

STARLINK-1231 Visibility forecast

Observer location: undefined°, undefined

Span
Click to sort rows by Start time (UTC) header in descending order
Start Az.
Max El. time (UTC)
Max El. Az.
Max El.
End time (UTC)
End Az.
5 mins2024-12-05 05:00:12.014Z338.538° N2024-12-05 05:02:12.014Z12.098° NNE19.498°2024-12-05 05:05:12.014Z66.093° ENE
6 mins2024-12-05 06:40:12.014Z309.99° NW2024-12-05 06:42:12.014Z310.454° NW43.421°2024-12-05 06:46:12.014Z130.911° SE
4 mins2024-12-05 22:14:12.014Z151.398° SSE2024-12-05 22:15:12.014Z134.523° SE15.889°2024-12-05 22:18:12.014Z86.985° E
6 mins2024-12-05 23:52:12.014Z243.902° WSW2024-12-05 23:55:12.014Z3.365° NNE40.911°2024-12-05 23:58:12.014Z44.403° NE
4 mins2024-12-06 01:33:12.014Z311.841° NW2024-12-06 01:35:12.014Z348.016° N17.297°2024-12-06 01:37:12.014Z20.439° NNE
|